IW0RQH-13 Weather Reports


time (UTC)temp
C
wind
direction
speed
KPH
gust
KPH
rain 1hr
cm
rain 24hr
cm
rain mn
cm
humidity
%
barometer
mb
20260906065403 23 166 4.8 11.3 0.00 0.00 0.00 59 1019.9
20260906064503 23 166 4.8 9.7 0.00 0.00 0.00 61 1019.9
20260906063603 22 130 3.2 6.4 0.00 0.00 0.00 63 1019.9
20260906062724 21 91 3.2 8.0 0.00 0.00 0.00 66 1019.9
20260906061803 21 78 6.4 9.7 0.00 0.00 0.00 67 1020.0
20260906060924 20 79 6.4 9.7 0.00 0.00 0.00 69 1019.8
20260906060003 20 78 6.4 11.3 0.00 0.00 0.00 69 1020.0
20260906055403 20 97 8.0 14.5 0.00 0.00 0.00 69 1019.8
20260906054524 20 97 6.4 14.5 0.00 0.00 0.00 68 1019.8
20260906053603 21 141 6.4 9.7 0.00 0.00 0.00 67 1019.6
20260906052703 21 146 6.4 9.7 0.00 0.00 0.00 69 1019.8
20260906051824 20 125 8.0 11.3 0.00 0.00 0.00 69 1019.6
20260906050903 19 109 4.8 9.7 0.00 0.00 0.00 71 1019.6
20260906050003 19 86 6.4 11.3 0.00 0.00 0.00 71 1019.5
20260906045403 20 84 6.4 12.9 0.00 0.00 0.00 71 1019.3
20260906044503 20 92 6.4 11.3 0.00 0.00 0.00 71 1019.6
20260906043603 19 86 6.4 11.3 0.00 0.00 0.00 72 1019.7
20260906042703 19 83 8.0 11.3 0.00 0.00 0.00 72 1019.5
20260906041803 20 96 6.4 12.9 0.00 0.00 0.00 72 1019.0
20260906040903 20 75 6.4 12.9 0.00 0.00 0.00 72 1019.6
20260906040003 20 80 6.4 12.9 0.00 0.00 0.00 71 1019.3
20260906035403 20 79 6.4 12.9 0.00 0.00 0.00 70 1019.3
20260906034503 20 102 8.0 16.1 0.00 0.00 0.00 70 1019.2
20260906033603 20 110 6.4 12.9 0.00 0.00 0.00 68 1019.0
20260906032703 20 85 6.4 14.5 0.00 0.00 0.00 69 1019.0
20260906031803 20 107 6.4 14.5 0.00 0.00 0.00 68 1018.9
20260906030924 20 108 8.0 14.5 0.00 0.00 0.00 68 1019.0
20260906030003 20 91 8.0 17.7 0.00 0.00 0.00 67 1018.6
20260906025403 20 91 8.0 16.1 0.00 0.00 0.00 67 1018.9
20260906024503 20 81 8.0 16.1 0.00 0.00 0.00 67 1019.0
20260906023603 20 83 8.0 12.9 0.00 0.00 0.00 68 1018.9
20260906022724 21 88 6.4 9.7 0.00 0.00 0.00 67 1019.1
20260906021824 21 78 8.0 11.3 0.00 0.00 0.00 67 1019.2
20260906020903 21 92 6.4 9.7 0.00 0.00 0.00 66 1019.1
20260906020003 21 106 8.0 12.9 0.00 0.00 0.00 65 1018.8
20260906015424 21 100 8.0 14.5 0.00 0.00 0.00 65 1018.8
20260906014503 21 113 8.0 12.9 0.00 0.00 0.00 65 1019.0
20260906013603 21 114 9.7 16.1 0.00 0.00 0.00 65 1019.2
20260906012703 21 96 9.7 14.5 0.00 0.00 0.00 65 1019.0
20260906011824 21 79 9.7 16.1 0.00 0.00 0.00 65 1018.9
20260906010903 21 82 9.7 16.1 0.00 0.00 0.00 64 1019.2
20260906010024 21 75 9.7 14.5 0.00 0.00 0.00 64 1019.0
20260906005403 22 84 9.7 14.5 0.00 0.00 0.00 63 1019.2
20260906004503 22 85 8.0 16.1 0.00 0.00 0.00 63 1018.9
20260906003603 22 95 6.4 11.3 0.00 0.00 0.00 62 1019.1
20260906002703 22 89 6.4 9.7 0.00 0.00 0.00 62 1019.2
20260906001824 22 89 9.7 17.7 0.00 0.00 0.00 61 1018.9
20260906000903 22 94 12.9 20.9 0.00 0.00 0.00 61 1018.9
20260906000003 22 78 11.3 16.1 0.00 0.00 0.00 62 1018.9
20260905235403 22 74 9.7 16.1 0.00 0.00 0.00 62 1019.0
20260905234503 22 72 9.7 14.5 0.00 0.00 0.00 62 1018.9
20260905233603 22 78 9.7 14.5 0.00 0.00 0.00 61 1018.8
20260905232703 23 73 9.7 14.5 0.00 0.00 0.00 61 1018.8
20260905231803 23 76 9.7 12.9 0.00 0.00 0.00 61 1018.8
20260905230903 23 83 8.0 14.5 0.00 0.00 0.00 60 1018.8
20260905230003 23 88 8.0 14.5 0.00 0.00 0.00 60 1019.0
20260905225403 23 81 8.0 14.5 0.00 0.00 0.00 60 1018.6
20260905224503 23 88 8.0 11.3 0.00 0.00 0.00 60 1018.9
20260905223603 23 88 8.0 12.9 0.00 0.00 0.00 59 1018.8
20260905222703 23 71 9.7 16.1 0.00 0.00 0.00 60 1018.9
20260905221803 23 76 8.0 12.9 0.00 0.00 0.00 59 1018.8
20260905220903 23 89 8.0 11.3 0.00 0.00 0.00 58 1018.7
20260905220004 23 76 8.0 12.9 0.00 0.00 0.00 58 1018.6
20260905215403 24 77 8.0 11.3 0.00 0.00 0.00 58 1018.7
20260905214524 23 70 6.4 9.7 0.00 0.00 0.00 58 1018.6
20260905213624 24 78 6.4 9.7 0.00 0.00 0.00 58 1018.5
20260905212703 24 81 6.4 8.0 0.00 0.00 0.00 57 1018.5
20260905211803 24 86 6.4 9.7 0.00 0.00 0.00 56 1018.3
20260905210903 24 77 8.0 11.3 0.00 0.00 0.00 56 1018.4
20260905210003 25 92 6.4 8.0 0.00 0.00 0.00 54 1018.5
20260905205403 25 91 4.8 8.0 0.00 0.00 0.00 54 1018.3
20260905204524 25 73 4.8 9.7 0.00 0.00 0.00 53 1018.4
20260905203603 26 112 3.2 6.4 0.00 0.00 0.00 51 1018.2
20260905202703 26 119 4.8 6.4 0.00 0.00 0.00 51 1018.1
20260905201803 26 60 3.2 6.4 0.00 0.00 0.00 50 1018.2
20260905200903 27 129 4.8 8.0 0.00 0.00 0.00 48 1018.4
20260905200003 27 115 4.8 6.4 0.00 0.00 0.00 49 1018.1
20260905195403 27 104 4.8 6.4 0.00 0.00 0.00 49 1018.0
20260905194503 27 122 1.6 6.4 0.00 0.00 0.00 49 1018.1
20260905193624 28 113 1.6 8.0 0.00 0.00 0.00 48 1018.0
20260905192703 28 153 6.4 9.7 0.00 0.00 0.00 48 1017.7
20260905191803 28 220 9.7 17.7 0.00 0.00 0.00 48 1017.9
20260905190903 28 214 8.0 16.1 0.00 0.00 0.00 48 1017.8
20260905190003 28 230 9.7 19.3 0.00 0.00 0.00 46 1017.5
20260905185403 29 219 9.7 19.3 0.00 0.00 0.00 45 1017.4
20260905184503 29 165 11.3 20.9 0.00 0.00 0.00 44 1017.3
20260905183603 29 161 9.7 17.7 0.00 0.00 0.00 43 1017.2
20260905182703 30 167 8.0 16.1 0.00 0.00 0.00 42 1017.2
20260905181824 30 174 6.4 12.9 0.00 0.00 0.00 42 1016.9
20260905180903 30 179 6.4 12.9 0.00 0.00 0.00 42 1016.6
20260905180003 30 207 8.0 12.9 0.00 0.00 0.00 40 1016.5
20260905175403 30 209 8.0 12.9 0.00 0.00 0.00 39 1016.3
20260905174503 30 220 8.0 14.5 0.00 0.00 0.00 38 1016.3
20260905173603 31 235 9.7 14.5 0.00 0.00 0.00 36 1016.3
20260905172703 31 239 12.9 19.3 0.00 0.00 0.00 35 1016.4
20260905171803 32 243 12.9 19.3 0.00 0.00 0.00 34 1016.2
20260905170903 32 250 11.3 19.3 0.00 0.00 0.00 34 1016.3
20260905170003 32 245 14.5 24.1 0.00 0.00 0.00 34 1016.1
20260905165403 32 246 14.5 24.1 0.00 0.00 0.00 34 1016.1
20260905164503 32 253 14.5 24.1 0.00 0.00 0.00 34 1015.9
20260905163624 33 246 14.5 22.5 0.00 0.00 0.00 33 1015.9
20260905162724 33 246 16.1 25.7 0.00 0.00 0.00 33 1016.2
20260905161803 33 251 19.3 25.7 0.00 0.00 0.00 31 1015.9
20260905160924 33 246 17.7 27.4 0.00 0.00 0.00 30 1015.9
20260905160003 33 238 16.1 25.7 0.00 0.00 0.00 29 1015.8
20260905155403 33 245 19.3 27.4 0.00 0.00 0.00 29 1015.9
20260905154503 33 249 17.7 27.4 0.00 0.00 0.00 30 1015.9
20260905153624 33 238 16.1 25.7 0.00 0.00 0.00 31 1016.0
20260905152703 33 251 17.7 29.0 0.00 0.00 0.00 31 1015.6
20260905151803 34 240 14.5 25.7 0.00 0.00 0.00 31 1015.9
20260905150903 34 257 9.7 19.3 0.00 0.00 0.00 30 1016.0
20260905150024 34 246 12.9 22.5 0.00 0.00 0.00 30 1016.1
20260905145403 33 241 14.5 25.7 0.00 0.00 0.00 30 1015.8
20260905144503 34 239 12.9 22.5 0.00 0.00 0.00 29 1016.1
20260905143603 33 252 14.5 22.5 0.00 0.00 0.00 30 1016.2
20260905142703 33 241 14.5 25.7 0.00 0.00 0.00 30 1016.1
20260905141824 34 235 17.7 27.4 0.00 0.00 0.00 30 1016.1
20260905140903 34 244 16.1 27.4 0.00 0.00 0.00 30 1016.4
20260905140003 33 243 16.1 27.4 0.00 0.00 0.00 30 1016.2
20260905135403 33 231 16.1 27.4 0.00 0.00 0.00 30 1016.4
20260905134503 33 224 16.1 30.6 0.00 0.00 0.00 28 1016.5
20260905133603 34 231 16.1 25.7 0.00 0.00 0.00 28 1016.7
20260905132703 33 247 16.1 30.6 0.00 0.00 0.00 30 1016.7
20260905131803 33 212 14.5 29.0 0.00 0.00 0.00 27 1016.7
20260905130903 34 226 14.5 24.1 0.00 0.00 0.00 26 1016.8
20260905130003 33 248 14.5 25.7 0.00 0.00 0.00 27 1016.8
20260905125403 33 240 16.1 29.0 0.00 0.00 0.00 27 1016.9
20260905124503 33 246 12.9 22.5 0.00 0.00 0.00 28 1017.0
20260905123603 33 248 12.9 22.5 0.00 0.00 0.00 27 1017.1
20260905122703 33 233 11.3 24.1 0.00 0.00 0.00 27 1017.3
20260905121824 33 217 11.3 24.1 0.00 0.00 0.00 28 1017.0
20260905120924 33 224 12.9 24.1 0.00 0.00 0.00 27 1017.7
20260905120003 33 251 12.9 22.5 0.00 0.00 0.00 26 1017.4
20260905115403 33 242 14.5 27.4 0.00 0.00 0.00 26 1017.5
20260905114503 33 258 17.7 30.6 0.00 0.00 0.00 27 1017.4
20260905113624 33 257 17.7 38.6 0.00 0.00 0.00 26 1017.5
20260905112703 33 249 19.3 33.8 0.00 0.00 0.00 25 1017.3
20260905111824 33 245 16.1 29.0 0.00 0.00 0.00 25 1017.4
20260905110903 32 252 12.9 27.4 0.00 0.00 0.00 26 1017.7
20260905110003 33 226 9.7 22.5 0.00 0.00 0.00 27 1017.5
20260905105403 33 197 4.8 14.5 0.00 0.00 0.00 30 1017.3
20260905104503 32 208 8.0 17.7 0.00 0.00 0.00 30 1017.9
20260905103603 31 231 6.4 19.3 0.00 0.00 0.00 31 1017.6
20260905102703 31 284 6.4 16.1 0.00 0.00 0.00 35 1017.7
20260905101803 31 265 6.4 12.9 0.00 0.00 0.00 35 1017.7
20260905100924 31 249 6.4 11.3 0.00 0.00 0.00 34 1017.9
20260905100003 32 191 6.4 14.5 0.00 0.00 0.00 33 1018.1
20260905095403 32 168 4.8 9.7 0.00 0.00 0.00 34 1017.8
20260905094524 31 174 6.4 9.7 0.00 0.00 0.00 35 1017.9
20260905093603 31 180 4.8 11.3 0.00 0.00 0.00 36 1018.0
20260905092703 30 185 6.4 9.7 0.00 0.00 0.00 38 1018.0
20260905091803 30 155 4.8 11.3 0.00 0.00 0.00 39 1017.9
20260905090903 29 138 4.8 9.7 0.00 0.00 0.00 40 1017.9
20260905090003 28 145 3.2 8.0 0.00 0.00 0.00 43 1018.2
20260905085403 27 210 1.6 6.4 0.00 0.00 0.00 44 1018.1
20260905084503 27 205 3.2 6.4 0.00 0.00 0.00 45 1018.3
20260905083603 26 194 3.2 6.4 0.00 0.00 0.00 47 1018.2
20260905082703 26 227 3.2 8.0 0.00 0.00 0.00 48 1018.5
20260905081803 26 203 3.2 6.4 0.00 0.00 0.00 48 1018.4
20260905080903 24 234 4.8 9.7 0.00 0.00 0.00 52 1018.1
20260905080003 24 267 4.8 9.7 0.00 0.00 0.00 55 1018.3
20260905075403 24 260 4.8 9.7 0.00 0.00 0.00 54 1018.5
20260905074503 23 249 4.8 9.7 0.00 0.00 0.00 56 1018.2
20260905073624 22 237 4.8 8.0 0.00 0.00 0.00 57 1018.0
20260905072703 22 245 3.2 8.0 0.00 0.00 0.00 58 1018.3
20260905071803 22 214 1.6 4.8 0.00 0.00 0.00 58 1018.3
20260905070903 22 142 1.6 4.8 0.00 0.00 0.00 58 1018.1
20260905070024 23 132 4.8 8.0 0.00 0.00 0.00 56 1018.1